| time (UTC) | temp F | wind direction | speed MPH | gust MPH | rain 1hr in | rain 24hr in | rain mn in | humidity % | barometer mb |
| 20260507230019 | 69 | 292 | 0.0 | 0.0 | 0.00 | 0.00 | 0.00 | 27 | 1008.7 |
| 20260507224522 | 69 | 348 | 0.0 | 0.0 | 0.00 | 0.04 | 0.00 | 28 | 1008.9 |
| 20260507223017 | 69 | 34 | 0.0 | 0.0 | 0.00 | 0.04 | 0.00 | 27 | 1008.9 |
| 20260507221517 | 69 | 344 | 0.0 | 9.0 | 0.00 | 0.04 | 0.00 | 27 | 1009.2 |
| 20260507220013 | 70 | 257 | 0.0 | 11.0 | 0.00 | 0.04 | 0.00 | 30 | 1009.5 |
| 20260507214518 | 70 | 313 | 1.0 | 10.0 | 0.00 | 0.15 | 0.00 | 31 | 1010.0 |
| 20260507213008 | 69 | 248 | 3.0 | 9.0 | 0.00 | 0.15 | 0.00 | 30 | 1010.4 |
| 20260507211503 | 66 | 89 | 0.0 | 0.0 | 0.00 | 0.15 | 0.00 | 33 | 1010.8 |
| 20260507204558 | 63 | 344 | 0.0 | 0.0 | 0.00 | 0.25 | 0.00 | 33 | 1011.4 |
| 20260507203157 | 63 | 344 | 0.0 | 0.0 | 0.00 | 0.25 | 0.00 | 35 | 1011.7 |
| 20260507201556 | 63 | 345 | 0.0 | 0.0 | 0.00 | 0.25 | 0.00 | 34 | 1012.0 |
| 20260507200053 | 63 | 252 | 0.0 | 7.0 | 0.00 | 0.25 | 0.00 | 34 | 1012.2 |
| 20260507194550 | 64 | 256 | 2.0 | 12.0 | 0.00 | 0.43 | 0.00 | 32 | 1012.4 |
| 20260507193055 | 63 | 329 | 6.0 | 15.0 | 0.00 | 0.43 | 0.00 | 38 | 1012.7 |
| 20260507191547 | 62 | 258 | 4.0 | 14.0 | 0.00 | 0.43 | 0.00 | 39 | 1012.9 |
| 20260507190043 | 60 | 261 | 5.0 | 16.0 | 0.00 | 0.43 | 0.00 | 36 | 1013.2 |
| 20260507184541 | 60 | 242 | 0.0 | 12.0 | 0.00 | 0.48 | 0.00 | 37 | 1013.4 |
| 20260507183037 | 59 | 333 | 1.0 | 10.0 | 0.00 | 0.48 | 0.00 | 37 | 1013.6 |
| 20260507181537 | 59 | 236 | 3.0 | 10.0 | 0.00 | 0.48 | 0.00 | 39 | 1013.6 |
| 20260507180034 | 58 | 288 | 0.0 | 0.0 | 0.00 | 0.48 | 0.00 | 41 | 1014.0 |
| 20260507174546 | 57 | 292 | 0.0 | 0.0 | 0.00 | 0.51 | 0.00 | 42 | 1014.3 |
| 20260507173032 | 57 | 292 | 0.0 | 2.0 | 0.00 | 0.51 | 0.00 | 41 | 1014.4 |
| 20260507171541 | 57 | 249 | 0.0 | 2.0 | 0.00 | 0.51 | 0.00 | 39 | 1014.6 |
| 20260507170029 | 57 | 71 | 0.0 | 0.0 | 0.00 | 0.51 | 0.00 | 45 | 1014.9 |
| 20260507164529 | 57 | 71 | 0.0 | 2.0 | 0.00 | 0.53 | 0.00 | 43 | 1014.8 |
| 20260507163027 | 58 | 95 | 0.0 | 0.0 | 0.00 | 0.53 | 0.00 | 41 | 1015.1 |
| 20260507161525 | 59 | 82 | 0.0 | 0.0 | 0.00 | 0.53 | 0.00 | 41 | 1015.2 |
| 20260507160024 | 60 | 355 | 0.0 | 0.0 | 0.00 | 0.53 | 0.00 | 42 | 1015.5 |
| 20260507154523 | 61 | 69 | 0.0 | 0.0 | 0.00 | 0.54 | 0.00 | 39 | 1015.5 |
| 20260507153025 | 60 | 80 | 0.0 | 0.0 | 0.00 | 0.54 | 0.00 | 42 | 1015.7 |